Regional Weather Roundup
Issued by NWS

Home | Current Version | Previous Version | Text Only | Print | Product List | Glossary Off
Versions: 1 2 3 4 5 6 7 8 9 10 11 12 13 14 15 16 17 18 19 20 21 22 23 24 25 26 27 28 29 30 31 32 33 34 35 36 37 38 39 40 41 42 43 44 45 46 47 48 49 50

000
ASUS43 KOAX 280502
RWRNE

WEATHER ROUNDUP FOR NEBRASKA
NATIONAL WEATHER SERVICE OMAHA NE
1100 PM CST THU NOV 27 2014

NOTES: SATELLITE DATA IS BEING USED TO AUGMENT CLOUD COVER ABOVE
       12000 FEET.
       "FAIR" INDICATES FEW OR NO CLOUDS BELOW 12,000 FEET WITH NO
       SIGNIFICANT WEATHER AND/OR OBSTRUCTIONS TO VISIBILITY.

  * THESE STATIONS DO NOT REPORT WEATHER SUCH AS RAIN...SNOW OR FOG.

NEZ001>004-019>022-054>056-280600-
NEBRASKA PANHANDLE

CITY           SKY/WX    TMP DP  RH WIND       PRES   REMARKS
SCOTTSBLUFF    PTCLDY    31  25  78 E6        29.98F WCI  25
ALLIANCE       CLOUDY    34  27  75 W8        29.95F WCI  27
CHADRON        CLOUDY   N/A N/A N/A W10       29.92F
SIDNEY         CLEAR     31  26  82 SW9       30.02F WCI  23
$$

NEZ057>060-069>072-079>082-280600-
SOUTHWEST NEBRASKA

CITY           SKY/WX    TMP DP  RH WIND       PRES   REMARKS
NORTH PLATTE   PTCLDY    24  18  77 CALM      29.97F
IMPERIAL       CLEAR     44  27  51 W10       30.00S
LEXINGTON      MOCLDY    23  17  78 CALM      29.97F
MCCOOK         PTCLDY    38  25  59 W12       29.98S WCI  30
$$

NEZ005>010-023>029-035>040-094-280600-
NORTH CENTRAL NEBRASKA

CITY           SKY/WX    TMP DP  RH WIND       PRES   REMARKS
VALENTINE      CLEAR     33  28  81 SW6       29.88F WCI  28
AINSWORTH      CLEAR     33  22  64 S14       29.90S WCI  24
BROKEN BOW     PTCLDY    25  17  72 CALM      29.96F
ORD            CLEAR     24  16  71 SE5       29.98F WCI  18
$$

NEZ041-046>049-061>064-073>077-083>087-280600-
SOUTH CENTRAL NEBRASKA

CITY           SKY/WX    TMP DP  RH WIND       PRES   REMARKS
GRAND ISLAND   PTCLDY    29  18  63 S8        30.03F WCI  21
AURORA         CLEAR     27  18  68 SE8       30.03F WCI  18
HASTINGS       PTCLDY    32  18  56 S13       30.00F WCI  22
KEARNEY *      PTCLDY    28  19  69 S8        30.00F WCI  20
YORK           CLEAR     28  18  64 S12       30.05F WCI  18
$$

NEZ011>018-030>034-042>045-280600-
NORTHEAST NEBRASKA

CITY           SKY/WX    TMP DP  RH WIND       PRES   REMARKS
NORFOLK        PTCLDY    22  15  75 SE10      30.03F WCI  11
BLAIR          PTCLDY    25  18  72 SE14      30.13F WCI  14
COLUMBUS *     PTCLDY    25  16  68 SE9       30.07F WCI  15
TEKAMAH        PTCLDY    20  13  74 SE12      30.14F WCI   8
$$

NEZ050>053-065>068-078-088>093-280600-
SOUTHEAST NEBRASKA

CITY           SKY/WX    TMP DP  RH WIND       PRES   REMARKS
LINCOLN        PTCLDY    26  18  71 S10       30.12F WCI  16
OMAHA EPPLEY   PTCLDY    24  17  74 SE14      30.17F WCI  12
FALLS CITY     CLEAR     27  21  78 SE8       30.20F WCI  19
NEBRASKA CITY  CLEAR     27  19  71 S14       30.15F WCI  16
PLATTSMOUTH    CLEAR     24  17  74 SE12G17   30.16F WCI  13
$$

NEZ044-045-051>053-067-280600-
OMAHA AREA

CITY           SKY/WX    TMP DP  RH WIND       PRES   REMARKS
OMAHA EPPLEY   PTCLDY    24  17  74 SE14      30.17F WCI  12
BLAIR          PTCLDY    25  18  72 SE14      30.13F WCI  14
OFFUTT AFB     CLEAR     22  17  78 SE8       30.16F WCI  13
PLATTSMOUTH    CLEAR     24  17  74 SE12G17   30.16F WCI  13
WAHOO          FAIR      22  17  78 SE8       30.12F WCI  13
$$


USA.gov is the U.S. government's official web portal to all federal, state and local government web resources and services.